Location: Cul de Sac
(18.0387°N, 63.0654°W)
Time: 12:46:15
(UTC+00:00)

SRMSAT - Visible Passes

Search period start: 20 September 2021 00:00
Search period end: 30 September 2021 00:00
Orbit: 848 x 865 km, 20.0° (Epoch: 19 September)

Date Brightness Start Highest point End Pass type
(mag) Time Alt. Az. Time Alt. Az. Time Alt. Az.
21 Sep ? 09:29:42 10° S 09:32:45 14° SSE 09:35:49 10° SE visible
22 Sep ? 09:16:06 10° SSW 09:19:43 16° SSE 09:23:20 10° ESE visible
23 Sep ? 09:02:35 10° SSW 09:06:39 19° SSE 09:10:43 10° ESE visible
24 Sep ? 08:49:10 10° SSW 08:53:35 22° SSE 08:58:01 10° ESE visible
25 Sep ? 08:37:03 15° SSW 08:40:32 24° SSE 08:45:16 10° ESE visible
26 Sep ? 08:25:07 21° SSW 08:27:28 28° SSE 08:32:27 10° ESE visible
27 Sep ? 08:13:09 29° S 08:14:24 31° SSE 08:19:35 10° E visible
28 Sep ? 08:01:10 35° SSE 08:01:21 35° SSE 08:06:41 10° E visible
29 Sep ? 07:49:09 37° SE 07:49:09 37° SE 07:53:46 10° E visible
29 Sep ? 09:31:25 10° WSW 09:37:21 81° SSE 09:43:19 10° E visible
